Flag for Finland Weather past 2 weeks in Tampere, Finland

Now
55 °F

Clear.


Feels Like: 54 °F
Forecast: 49 / 68 °F
Wind: 6 mph from South

Location: Tampere / Pirkkala

Current Time: Sep 2, 2014 at 10:17:09 PM

Latest Report: Sep 2, 2014 at 9:50 PM


Visibility: 10 mi

Pressure: 30.27 "Hg

Humidity: 88%

Dew point: 52 °F

Location of TampereLocation

Historic Weather in Tampere — Graph

°F

Tampere temperature yesterday

Maximum temperature yesterday: 57 °F (at 2:20 PM)
Minimum temperature yesterday: 48 °F (at 9:50 PM)
Average temperature yesterday: 53 °F

Past Weeks' High & Low Weather Summary

 TemperatureHumidityPressure
High64 °F (Aug 19, 3:50 PM)100% (Aug 18, 11:20 PM)30.30 "Hg (Aug 18, 11:20 PM)
Low39 °F (Aug 30, 2:50 AM)44% (Aug 30, 4:20 PM)29.39 "Hg (Aug 19, 10:20 AM)
Average55 °F85%29.78 "Hg
* Reported Aug 18 8:20 PM — Sep 2 8:50 PM, Tampere, Weather by CustomWeather, © 2014

Note: Actual official high and low records may vary slightly from our data, if they occured in-between our weather recording intervals... More about our weather records

Advertising

Tampere weather history for previous 24 hours

 ConditionsComfort  
Time TempWeatherWind HumidityBarometerVisibility
8:50 PM
Sep 2
57 °FSunny.6 mph82%30.24 "Hg10 mi
8:20 PM57 °FSunny.5 mph82%30.24 "Hg10 mi
7:50 PM57 °FSunny.6 mph77%30.24 "Hg10 mi
7:20 PM57 °FSunny.6 mph77%30.24 "Hg10 mi
6:50 PM59 °FSunny.5 mph72%30.24 "Hg10 mi
6:20 PM59 °FSunny.5 mph77%30.24 "Hg10 mi
5:50 PM59 °FOvercast.5 mph77%30.24 "HgN/A
5:20 PM59 °FPartly sunny.7 mph77%30.24 "HgN/A
4:20 PM59 °FSunny.6 mph77%30.24 "Hg10 mi
3:50 PM59 °FSunny.7 mph77%30.24 "Hg10 mi
3:20 PM59 °FPartly sunny.8 mph77%30.27 "HgN/A
2:50 PM57 °FPartly sunny.8 mph82%30.27 "HgN/A
2:20 PM57 °FPartly sunny.9 mph82%30.27 "HgN/A
1:50 PM57 °FPartly sunny.7 mph82%30.27 "HgN/A
1:20 PM57 °FPartly sunny.8 mph82%30.27 "HgN/A
12:50 PM55 °FSunny.9 mph82%30.24 "Hg10 mi
12:20 PM55 °FSunny.9 mph88%30.27 "Hg10 mi
11:50 AM55 °FSunny.7 mph88%30.24 "Hg10 mi
11:32 AM55 °FSunny.6 mph88%30.24 "Hg10 mi
10:50 AM54 °FSunny.6 mph88%30.24 "Hg10 mi
10:20 AM54 °FSunny.5 mph88%30.24 "Hg10 mi
9:50 AM52 °FSunny.2 mph94%30.24 "Hg10 mi
9:20 AM52 °FPartly sunny.5 mph94%30.24 "HgN/A
8:50 AM52 °FSunny.5 mph94%30.24 "Hg10 mi
8:20 AM52 °FSunny.5 mph94%30.24 "Hg10 mi
7:50 AM52 °FSunny.3 mph94%30.24 "Hg10 mi
7:20 AM50 °FSunny.2 mph100%30.24 "Hg10 mi
6:50 AM50 °FClear.5 mph94%30.24 "Hg10 mi
6:20 AM50 °FClear.5 mph94%30.24 "Hg10 mi
5:50 AM50 °FClear.5 mph94%30.24 "Hg10 mi
5:20 AM50 °FClear.5 mph94%30.24 "Hg10 mi
4:50 AM50 °FClear.3 mph94%30.24 "Hg10 mi
4:20 AM50 °FClear.3 mph88%30.24 "Hg10 mi
3:50 AM50 °FClear.2 mph88%30.24 "Hg10 mi
3:20 AM50 °FClear.3 mph88%30.24 "Hg10 mi
2:50 AM50 °FClear.No wind88%30.24 "Hg10 mi
2:20 AM48 °FClear.1 mph94%30.24 "Hg10 mi
1:50 AM48 °FClear.2 mph94%30.24 "Hg10 mi
1:20 AM50 °FClear.3 mph88%30.24 "Hg10 mi
12:50 AM50 °FClear.1 mph82%30.24 "Hg10 mi
12:20 AM48 °FClear.2 mph87%30.24 "Hg10 mi
11:20 PM
Sep 1
50 °FClear.5 mph82%30.24 "Hg10 mi
10:50 PM48 °FClear.6 mph87%30.24 "Hg10 mi
10:20 PM48 °FClear.6 mph82%30.24 "Hg10 mi
Weather by CustomWeather, © 2014

See weather overviewHow to use our weather pages